Regional Weather Roundup
Issued by NWS Jackson, KY

Home | Current Version | Previous Version | Text Only | Print | Product List | Glossary On
Versions: 1 2 3 4 5 6 7 8 9 10 11 12 13 14 15 16 17 18 19 20 21 22 23 24 25 26 27 28 29 30 31 32 33 34 35 36 37 38 39 40 41 42 43 44 45 46 47 48 49 50
000
ASUS43 KJKL 221210
RWRJKL

EAST KENTUCKY HOURLY WEATHER ROUNDUP
NATIONAL WEATHER SERVICE JACKSON KY
800 AM EDT SUN APR 22 2018

NOTE: "FAIR" INDICATES FEW OR NO CLOUDS BELOW 12,000 FEET WITH
NO SIGNIFICANT WEATHER AND/OR OBSTRUCTIONS TO VISIBILITY.

* THESE REPORTS ARE NOT UNDER NWS QUALITY CONTROL AND MAY NOT
  REPORT WEATHER SUCH AS PRECIPITATION AND FOG.

KYZ079-080-083-085-087-088-110-112-115-119-120-221300
...EASTERN KENTUCKY...

CITY           SKY/WX    TMP DP  RH WIND       PRES   REMARKS
JACKSON          N/A     52  21  29 NE5       30.26R
6HR MIN TEMP:  51; 6HR MAX TEMP:  53;

LONDON           N/A     48  38  68 CALM      30.25R
6HR MIN TEMP:  46; 6HR MAX TEMP:  57;

SOMERSET*        N/A     48  36  61 CALM      30.26R
MONTICELLO*      N/A     49  43  80 VRB6      30.25R
6HR MIN TEMP:  45; 6HR MAX TEMP:  50;

WILLIAMSBURG*    N/A     46  41  81 CALM      30.25S
MIDDLESBORO*     N/A     44  40  85 CALM      30.29R
6HR MIN TEMP:  42; 6HR MAX TEMP:  46;

HARLAN APT*      N/A     45  38  79 CALM      30.29R
PIKE CO APT*     N/A     49  28  44 CALM      30.26S
BIG SANDY APT*   N/A     48  31  50 CALM      30.27R
6HR MIN TEMP:  46; 6HR MAX TEMP:  51;

MOREHEAD APT*    N/A     52  25  35 E3        30.29R
ASHLAND*         N/A     47  36  65 CALM      30.31R
$$

KYZ035-036-041-042-044-050-067-078-099-221300
...CENTRAL KENTUCKY...

CITY           SKY/WX    TMP DP  RH WIND       PRES   REMARKS
MT STERLING*     N/A     48  32  53 E6        30.28S
FLEMING/MASON* CLOUDY    47  28  47 NE7       30.29F
DANVILLE*        N/A     45  37  76 CALM      30.26R
LEXINGTON        N/A     49  32  52 NE8       30.26R
6HR MIN TEMP:  46; 6HR MAX TEMP:  51;

FRANKFORT        N/A     50  27  40 E5        30.26R
6HR MIN TEMP:  48; 6HR MAX TEMP:  53;

LOUISVILLE     PTSUNNY   54  29  38 NE5       30.26R
6HR MIN TEMP:  53; 6HR MAX TEMP:  55;

GLASGOW*         N/A     52  36  55 E5        30.20S
BOWLING GREEN    N/A     54  40  59 E5        30.20R
6HR MIN TEMP:  52; 6HR MAX TEMP:  57;

$$

KYZ091>093-OHZ055-061-077-WVZ005-015-034-035-042-221300
...SOUTHERN OHIO/WEST VIRGINIA...

CITY           SKY/WX    TMP DP  RH WIND       PRES   REMARKS
COVINGTON      CLOUDY    49  28  44 E9        30.29R
COLUMBUS       CLOUDY    47  31  53 NE7       30.32R
DAYTON         CLOUDY    44  32  62 CALM      30.33R
WILMINGTON       N/A     44  33  65 NE9       30.31R
HUNTINGTON       N/A     48  28  46 N5        30.28R
CHARLESTON     CLOUDY    46  34  62 CALM      30.27R
PINEVILLE*       N/A     45  35  67 MISG      30.34S
BECKLEY          N/A     51  31  46 SE7       30.30R
BLUEFIELD        N/A     52  30  43 CALM      30.31R
LOGAN CO APT*    N/A     54  27  35 CALM      30.27R
$$

VAZ002-007-008-TNZ017-027-036-066-071-221300
...SOUTHWEST VIRGINIA/EAST TENNESSEE...

CITY           SKY/WX    TMP DP  RH WIND       PRES   REMARKS
WISE*            N/A     54  32  43 S6        30.30R
JONESVILLE*      N/A     45  39  81 CALM      30.32R
ABINGDON*        N/A     50  37  61 E3        30.31R
BRISTOL        PTSUNNY   44  40  85 CALM      30.30R
MORRISTOWN*    MOSUNNY   52  37  58 E6        30.27R
SEVIERVILLE*   SUNNY     48  41  76 CALM      30.26R
KNOXVILLE        N/A     53  41  63 N3        30.23R
LAFOLLETTE*    SUNNY     46  43  87 CALM      30.29S
OAK RIDGE        N/A     50  45  83 CALM      30.26R
CROSSVILLE       N/A     56  36  47 SE5       30.23R
NASHVILLE      CLOUDY    57  45  62 NE7       30.16S
$$

...KEY TO REMARKS...
VSB - VISIBILITY IN MILES
WCI - WIND CHILL INDEX
HX  - HEAT INDEX

$$



USA.gov is the U.S. government's official web portal to all federal, state and local government web resources and services.